Wenatchee, WA
on Thursday, February 28, 2013

Thursday
Previous Day Next Day
Daily Summary
 ActualAverageRecord
Temperature
Mean Temperature °F 34°F  
Max Temperature 41°F 43°F 62°F (1968)
Min Temperature 33°F 25°F 7°F (2012)
Degree Days
Heating Degree Days 28 31  
Month to date heating degree days 920 940  
Since 1 July heating degree days 4863 5199  
Cooling Degree Days 0 0  
Month to date cooling degree days 0 0  
Year to date cooling degree days 0 0  
Moisture
Dew Point 34°F   
Average Humidity 82    
Maximum Humidity 93    
Minimum Humidity 65    
Precipitation
Precipitation 0.18 in 0.05 in 0.53 in (1977)
Month to date precipitation 0.69 1.46  
Year to date precipitation 2.15 3.33  
Snow
Snow 0.00 in 0.20 in in ()
Month to date snowfall 3.4 6.0  
Since 1 July snowfall 47.2 46.4  
Snow Depth 0.00 in   
Wind
Wind Speed 4 mph   
Max Wind Speed 8 mph   
Max Gust Speed mph   
Visibility 10 miles   
Events Rain   

Key: T is trace of precipitation, MM is missing value
Source: NWS Daily Summary
Time(PST)TemperatureDew PointHumidity Pressure Visibility Wind DirectionWind SpeedGust SpeedPrecipitationEvents Conditions
12:55 AM 39.9°F 28.9°F 65% 30.25 in 10.0 miles West 5.8 mph - N/A   Scattered Clouds
1:55 AM 39.0°F 30.0°F 70% 30.25 in 10.0 miles NNW 5.8 mph - N/A   Mostly Cloudy
2:55 AM 41.0°F 30.9°F 67% 30.24 in 10.0 miles NW 6.9 mph - N/A   Mostly Cloudy
3:55 AM 41.0°F 30.9°F 67% 30.24 in 10.0 miles NNW 3.5 mph - N/A   Overcast
4:55 AM 37.9°F 30.0°F 73% 30.25 in 10.0 miles Calm Calm - N/A   Overcast
5:55 AM 39.9°F 30.0°F 68% 30.27 in 10.0 miles Calm Calm - 0.00 in Rain Light Rain
6:51 AM 39.2°F 32.0°F 75% 30.27 in 9.0 miles Calm Calm - 0.03 in Rain Light Rain
6:55 AM 39.0°F 32.0°F 76% 30.29 in 10.0 miles Calm Calm - 0.03 in Rain Light Rain
7:55 AM 37.9°F 34.0°F 86% 30.30 in 10.0 miles WNW 4.6 mph - 0.01 in Rain Light Rain
8:55 AM 39.0°F 36.0°F 89% 30.31 in 10.0 miles Calm Calm - 0.00 in Rain Light Rain
9:55 AM 39.0°F 35.1°F 86% 30.32 in 10.0 miles Calm Calm - 0.02 in Rain Light Rain
10:04 AM 39.2°F 35.6°F 87% 30.30 in 10.0 miles WSW 3.5 mph - 0.00 in Rain Light Rain
10:55 AM 37.9°F 34.0°F 86% 30.33 in 8.0 miles WNW 5.8 mph - 0.03 in Rain Light Rain
11:20 AM 37.4°F 33.8°F 87% 30.30 in 8.0 miles NW 3.5 mph - 0.01 in Rain Light Rain
11:55 AM 37.9°F 34.0°F 86% 30.33 in 9.0 miles Calm Calm - 0.03 in Rain Light Rain
12:55 PM 39.0°F 34.0°F 82% 30.32 in 10.0 miles Calm Calm - 0.01 in Rain Light Rain
1:42 PM 39.2°F 35.6°F 87% 30.28 in 10.0 miles West 4.6 mph - 0.00 in Rain Light Rain
1:55 PM 39.0°F 35.1°F 86% 30.31 in 10.0 miles WNW 4.6 mph - 0.01 in Rain Light Rain
2:35 PM 39.2°F 35.6°F 87% 30.28 in 10.0 miles West 5.8 mph - 0.00 in Rain Light Rain
2:55 PM 39.9°F 36.0°F 86% 30.31 in 10.0 miles West 6.9 mph - 0.00 in Rain Light Rain
3:55 PM 39.9°F 36.0°F 86% 30.32 in 10.0 miles WNW 8.1 mph - 0.00 in   Overcast
4:55 PM 39.9°F 35.1°F 83% 30.32 in 10.0 miles NW 4.6 mph - N/A   Overcast
5:26 PM 39.2°F 33.8°F 81% 30.29 in 10.0 miles SSW 4.6 mph - N/A   Mostly Cloudy
5:55 PM 37.9°F 35.1°F 89% 30.32 in 10.0 miles Calm Calm - N/A   Scattered Clouds
6:35 PM 37.4°F 35.6°F 93% 30.29 in 10.0 miles NNE 3.5 mph - N/A   Mostly Cloudy
7:55 PM 39.0°F 35.1°F 86% 30.33 in 10.0 miles WSW 4.6 mph - N/A   Overcast
8:55 PM 37.9°F 35.1°F 89% 30.33 in 10.0 miles West 4.6 mph - N/A   Overcast
9:55 PM 37.9°F 35.1°F 89% 30.32 in 10.0 miles Calm Calm - N/A   Overcast
11:55 PM 39.0°F 35.1°F 86% 30.34 in 10.0 miles NW 3.5 mph - N/A   Overcast
Moon Phase
Feb. 28 Mar. 04 Mar. 11 Mar. 19 Mar. 27
Sunrise:06:42 AM (PST) Moon Rise:09:36 PM (PST)2/28
Sunset:05:44 PM (PST) Moon Set:07:38 AM (PST)2/28

Copyright © 2014 The Weather Underground, Inc.